User: anonymous   Login
Location: ??????-???
(48.4261°N, 37.7652°E)
Time: 12:42:55
(UTC+00:00)
Language:

IRS-P3 - Orbit

View from above orbital plane
View from above orbital plane
View from above satellite
View from above satellite

Ground track
Ground track

The orbit data is extracted from the following two-line orbital elements,

1 23827U 96017A   21163.14571580 -.00000001  00000-0  20001-4 0  9998
2 23827  98.8958 120.4776 0003943 141.1664 218.9797 14.22655536309419
Epoch (UTC): 12 June 2021 03:29:49
Eccentricity: 0.0003943
inclination: 98.8958°
perigee height: 813 km
apogee height: 819 km
right ascension of ascending node: 120.4776°
argument of perigee: 141.1664°
revolutions per day: 14.22655536
mean anomaly at epoch: 218.9797°
orbit number at epoch: 30941

The dashed part of the orbit path shows where the satellite is in the earth's shadow,  

DLR